Location: Unspecified
(50.0830°N, 0.0000°E)
Time: 13:47:10
(UTC+00:00)

Envisat - Pass Details

Date: 20 November 2019
Orbit: 764 x 766 km, 98.1° (Epoch: 13 December)

Event Time Altitude Azimuth Distance (km) Brightness Sun altitude
Rises 18:19:16 0° 180° (S) 3,221 6.3 -20.3°
Reaches altitude 10° 18:21:38 10° 186° (S) 2,299 5.6 -20.7°
Maximum altitude 18:26:33 49° 261° (W) 982 3.9 -21.5°
Drops below altitude 10° 18:31:30 10° 336° (NNW) 2,315 5.7 -22.3°
Sets 18:33:54 0° 342° (NNW) 3,246 6.4 -22.7°
